Regional Weather Roundup
Issued by NWS

Home | Current Version | Previous Version | Graphics & Text | Print | Product List | Glossary On
Versions: 1 2 3 4 5 6 7 8 9 10 11 12 13 14 15 16 17 18 19 20 21 22 23 24 25 26 27 28 29 30 31 32 33 34 35 36 37 38 39 40 41 42 43 44 45 46 47 48 49 50
016
ASUS43 KLMK 090802
RWRKY
KENTUCKY REGIONAL WEATHER ROUNDUP
NATIONAL WEATHER SERVICE LOUISVILLE KY
300 AM EST TUE FEB 09 2016

NOTE "FAIR" INDICATES FEW OR NO CLOUDS BELOW 12,000 FEET
WITH NO SIGNIFICANT WEATHER AND/OR OBSTRUCTIONS TO VISIBILITY.

KYZ001>023-026-027-061>063-070>075-090900-
WESTERN AND SOUTH CENTRAL KENTUCKY

CITY           SKY/WX    TMP DP  RH WIND       PRES   REMARKS
PADUCAH        LGT SNOW  26  19  74 NW7       29.89S WCI  18
HENDERSON      CLOUDY    21  16  79 W15G22    29.87S WCI   8
OWENSBORO      FLURRIES  22  16  78 NW12      29.86F WCI  11
HOPKINSVILLE   NOT AVBL
BOWLING GREEN  FLURRIES  23  18  81 W10       29.86F WCI  12
GLASGOW        NOT AVBL
$$

KYZ024-025-028>034-038-045-046-053-090900-
NORTH CENTRAL KENTUCKY

CITY           SKY/WX    TMP DP  RH WIND       PRES   REMARKS
LOUISVILLE/SDF FLURRIES  23  15  71 W10       29.80F WCI  12
LOUISVILLE/LOU CLOUDY    22  15  75 W12G18    29.80F WCI  10
FORT KNOX      CLOUDY    21  15  77 W9        29.78S WCI  10
$$

KYZ035>037-039>044-047>052-055>060-089>105-090900-
NORTHEAST KENTUCKY

CITY           SKY/WX    TMP DP  RH WIND       PRES   REMARKS
LEXINGTON      CLOUDY    20  14  77 W8        29.75S WCI  10
COVINGTON      FLURRIES  21  15  78 W14       29.71F WCI   8
FRANKFORT      CLOUDY    21  14  74 W8        29.76S WCI  11
$$

KYZ054-064>069-076>088-106>120-090900-
SOUTHEAST KENTUCKY

CITY           SKY/WX    TMP DP  RH WIND       PRES   REMARKS
JACKSON        CLOUDY    24  17  74 W9        29.70S WCI  14
LONDON         CLOUDY    23  16  74 W12       29.75R WCI  12
SOMERSET       NOT AVBL
MIDDLESBORO    NOT AVBL
MONTICELLO     FLURRIES  22  16  78 NW15      29.81S WCI   9
$$





USA.gov is the U.S. government's official web portal to all federal, state and local government web resources and services.